Regional Weather Roundup
Issued by NWS Cleveland, OH

Home | Current Version | Previous Version | Graphics & Text | Print | Product List | Glossary On
Versions: 1 2 3 4 5 6 7 8 9 10 11 12 13 14 15 16 17 18 19 20 21 22 23 24 25 26 27 28 29 30 31 32 33 34 35 36 37 38 39 40 41 42 43 44 45 46 47 48 49 50
000
ASUS41 KCLE 180912
RWRCLE
OHIO REGIONAL WEATHER ROUNDUP
NATIONAL WEATHER SERVICE WILMINGTON, OH
400 AM EST MON DEC 18 2017

NOTE: "FAIR" INDICATES FEW OR NO CLOUDS BELOW 12,000 FEET WITH NO
SIGNIFICANT WEATHER AND/OR OBSTRUCTIONS TO VISIBILITY.

OHZ001>008-015>018-024>027-034-035-043-044-181000-
   NORTHWEST OHIO

CITY           SKY/WX    TMP DP  RH WIND       PRES   REMARKS
DEFIANCE       CLOUDY    38  34  85 S7        30.00F
FINDLAY        CLOUDY    39  33  79 S9        30.01F
TOLEDO EXPRESS CLOUDY    39  36  89 SW9       29.99F
TOLEDO EXEC    CLOUDY    38  34  85 SW7       30.01F
LIMA           CLOUDY    38  35  89 S10       30.03F
$$

OHZ009>014-019>023-028>033-038-089-181000-
   NORTHEAST OHIO

CITY           SKY/WX    TMP DP  RH WIND       PRES   REMARKS
CLE-HOPKINS    CLOUDY    39  33  79 SW8       30.05F
CLE-LAKEFRONT  CLOUDY    40  32  73 SW15      30.02F
CUY CO. ARPT   NOT AVBL
LORAIN-ELYRIA  CLOUDY    36  29  75 SW7       30.03F
ASHTABULA      CLOUDY    36  32  85 S8        30.03S
AKRON-CANTON   CLOUDY    37  30  75 SW7       30.04F
WOOSTER        CLOUDY    35  31  85 SW8       30.05S WCI  29
MANSFIELD      CLOUDY    38  33  82 SW9       30.04S
YOUNGSTOWN     CLOUDY    36  31  82 S6        30.04R
$$

OHZ042-051>053-060>062-070>072-077>081-181000-
  SOUTHWEST OHIO

CITY           SKY/WX    TMP DP  RH WIND       PRES   REMARKS
CINC-COVINGTON FOG       40  40 100 S6        30.08S VSB 1/8
CINC-LUNKEN    CLOUDY    42  40  92 S6        30.10F
HAMILTON       CLOUDY    42  39  89 S3        30.09F
DAYTON         CLOUDY    39  38  96 SW9       30.06F
WRIGHT-PAT AFB CLOUDY    41  40  98 S8        30.06F
DAYTON GENERAL CLOUDY    40  37  89 SW9       30.05F
WILMINGTON     CLOUDY    39  39 100 SW9       30.07F
$$

OHZ036-037-039>041-045>050-054>059-063>069-073>076-082>088-181000-
  CENTRAL AND SOUTHEAST OHIO

CITY           SKY/WX    TMP DP  RH WIND       PRES   REMARKS
COLUMBUS       CLOUDY    39  36  89 S7        30.08S
OSU AIRPORT    CLOUDY    39  37  92 S7        30.07S
BOLTON FIELD   CLOUDY    39  37  92 SW8       30.08S
RICKENBACK AFB CLOUDY    38  37  96 S9        30.08S
NEWARK         CLOUDY    39  35  86 S6        30.07F
MARION         CLOUDY    37  33  85 S8        30.05
LANCASTER      CLOUDY    40  36  86 SW6       30.09S
ZANESVILLE     CLOUDY    38  33  82 S6        30.09S
NEW PHILLY     FAIR      32  29  88 SE5       30.08S WCI  27
$$




USA.gov is the U.S. government's official web portal to all federal, state and local government web resources and services.